This is the latest recevied weather packets stored in our database for station/object DG7YEO-13. If no packets are shown the sender has not sent any weather packets the latest 10 day(s).
| Time | Temp. | Humidity | Pressure | Rain* | Wind** | Luminosity | Snow |
|---|---|---|---|---|---|---|---|
| 1787733124 | 20.56° C | 67% | 1016.6 hPa | 0 mm | - | - | - |
| 1787732225 | 20° C | 68% | 1016.6 hPa | 0 mm | - | - | - |
| 1787731325 | 19.44° C | 70% | 1016.4 hPa | 0 mm | - | - | - |
| 1787730425 | 18.89° C | 73% | 1016.4 hPa | 0 mm | - | - | - |
| 1787729525 | 18.33° C | 73% | 1016.5 hPa | 0 mm | - | - | - |
| 1787728625 | 18.33° C | 74% | 1016.2 hPa | 0 mm | - | - | - |
| 1787727726 | 18.33° C | 75% | 1016.1 hPa | 0 mm | - | - | - |
| 1787726825 | 17.78° C | 76% | 1016.1 hPa | 0 mm | - | - | - |
| 1787725925 | 17.78° C | 77% | 1016.3 hPa | 0 mm | - | - | - |
| 1787725025 | 17.22° C | 77% | 1016.2 hPa | 0 mm | - | - | - |
| 1787724125 | 16.67° C | 78% | 1016.2 hPa | 0 mm | - | - | - |
| 1787723225 | 16.67° C | 79% | 1016.2 hPa | 0 mm | - | - | - |
| 1787722325 | 16.67° C | 79% | 1016.2 hPa | 0 mm | - | - | - |
| 1787721425 | 16.67° C | 80% | 1016.1 hPa | 0 mm | - | - | - |
| 1787720525 | 16.67° C | 80% | 1016.2 hPa | 0 mm | - | - | - |
| 1787719625 | 16.11° C | 80% | 1016.2 hPa | 0 mm | - | - | - |
| 1787718726 | 16.67° C | 80% | 1016.2 hPa | 0 mm | - | - | - |
| 1787717825 | 16.67° C | 80% | 1016.1 hPa | 0 mm | - | - | - |
| 1787716925 | 16.67° C | 80% | 1016 hPa | 0 mm | - | - | - |
| 1787716025 | 16.11° C | 80% | 1016.1 hPa | 0 mm | - | - | - |
| 1787715125 | 16.11° C | 80% | 1016.1 hPa | 0 mm | - | - | - |
| 1787714225 | 16.11° C | 81% | 1016.2 hPa | 0 mm | - | - | - |
| 1787713325 | 16.11° C | 81% | 1016.2 hPa | 0 mm | - | - | - |
| 1787712425 | 16.11° C | 80% | 1016.1 hPa | 0 mm | - | - | - |
| 1787711525 | 16.11° C | 80% | 1016.2 hPa | 0 mm | - | - | - |
* Rain latest hour (hover to see other rain measurements)
** Current wind speed in m/s (hover to see current wind gust speed)